Location: Ostrava
(49.8330°N, 18.2830°E)
Time: 17:50:25
(UTC+01:00)

Explorer 7 - Visible Passes

Search period start: 27 February 2015 00:00
Search period end: 09 March 2015 00:00
Orbit: 489 x 697 km, 50.3° (Epoch: 26 February)

Date Brightness Start Highest point End Pass type
(mag) Time Alt. Az. Time Alt. Az. Time Alt. Az.
27 Feb 9.2 03:39:35 15° ESE 03:39:35 15° ESE 03:41:03 10° E visible
27 Feb 6.9 05:16:08 19° SW 05:18:43 59° SSE 05:22:28 10° E visible
28 Feb 8.6 03:47:52 23° ESE 03:47:52 23° ESE 03:50:04 10° E visible
28 Feb 6.6 05:24:25 17° WSW 05:27:14 77° SSE 05:31:03 10° E visible
01 Mar 8.0 03:56:06 33° ESE 03:56:06 33° ESE 03:58:48 10° E visible
01 Mar 6.6 05:32:39 14° W 05:35:47 89° NNW 05:39:37 10° E visible
02 Mar 7.3 04:04:16 49° ESE 04:04:16 49° ESE 04:07:25 10° E visible
02 Mar 6.6 05:40:49 12° W 05:44:22 82° N 05:48:12 10° E visible
03 Mar 6.7 04:12:24 70° SE 04:12:24 70° SE 04:15:59 10° E visible
03 Mar 6.6 05:49:09 10° W 05:52:57 83° N 05:56:46 10° E visible
04 Mar 6.4 04:20:30 78° WSW 04:20:44 88° S 04:24:32 10° E visible
05 Mar 9.8 02:52:03 12° E 02:52:03 12° E 02:52:20 10° E visible
05 Mar 6.5 04:28:35 57° W 04:29:17 83° N 04:33:05 10° E visible
06 Mar 9.5 03:00:07 15° E 03:00:07 15° E 03:00:54 10° E visible
06 Mar 6.5 04:36:40 42° W 04:37:51 82° N 04:41:39 10° E visible
07 Mar 9.2 03:08:13 19° E 03:08:13 19° E 03:09:26 10° E visible
07 Mar 6.5 04:44:45 32° W 04:46:24 88° N 04:50:11 10° E visible
08 Mar 8.8 03:16:18 25° E 03:16:18 25° E 03:17:57 10° E visible
08 Mar 6.5 04:52:50 25° W 04:54:55 79° SSW 04:58:42 10° ESE visible
